Regional Weather Roundup
Issued by NWS Albany, NY

Home | Current Version | Previous Version | Text Only | Print | Product List | Glossary On
Versions: 1 2 3 4 5 6 7 8 9 10 11 12 13 14 15 16 17 18 19 20 21 22 23 24 25 26 27
000
ASUS41 KALY 041610
RWRALY

NEW YORK STATE HOURLY WEATHER ROUNDUP
NATIONAL WEATHER SERVICE ALBANY NY
1100 AM EST SUN DEC 04 2016

NOTE: "FAIR" INDICATES FEW OR NO CLOUDS BELOW 12,000 FEET WITH NO
SIGNIFICANT WEATHER AND/OR NO OBSTRUCTIONS TO VISIBILITY.

NYZ032-033-038>043-046>054-057>066-NYZ062>081-082-084-041700-
EAST


CITY           SKY/WX    TMP DP  RH WIND       PRES   REMARKS
ALBANY         CLOUDY    34  20  56 W7        30.28R WCI  28
GLENS FALLS    CLOUDY    35  20  54 N8        30.26R WCI  29
POUGHKEEPSIE   SUNNY     38  22  52 N6        30.23F WCI  33
NEWBURGH       SUNNY     37  25  60 CALM      30.24
MONTGOMERY     SUNNY     41  23  48 NE3       30.21F
WHITE PLAINS   SUNNY     40  21  46 NW14      30.20F WCI  32
ISLIP          MOSUNNY   41  24  51 N12       30.20F
NEW YORK CITY  MOSUNNY   44  23  43 NW14      30.22F
CENTRAL PARK   SUNNY     42  22  44 VRB3      30.24F
$$

NYZ005>009-017-018-044>046-055-056-041700-
CENTRAL


CITY           SKY/WX    TMP DP  RH WIND       PRES   REMARKS
FULTON         CLOUDY    34  22  61 N6        30.27F WCI  29
SYRACUSE       PTSUNNY   34  23  64 NE3       30.27F
ROME           CLOUDY    31  22  69 NW10      30.30S WCI  22
ELMIRA         CLOUDY    39  24  55 W7        30.24S WCI  34
BINGHAMTON     MOSUNNY   32  22  66 NW6       30.20S WCI  26
MONTICELLO     SUNNY     36  21  55 NW13      30.20F WCI  27
$$

NYZ026>034-041>043-087-041700-
NORTH


CITY           SKY/WX    TMP DP  RH WIND       PRES   REMARKS
WATERTOWN      CLOUDY    30  19  63 NE6       30.30S WCI  24
FORT DRUM      NOT AVBL
OGDENSBURG     CLOUDY    31  22  68 CALM      30.29F
MASSENA        CLOUDY    32  20  61 W8        30.30S WCI  25
SARANAC LAKE   CLOUDY    23  18  81 VRB5      30.18F WCI  17
PLATTSBURGH    CLOUDY    34  20  56 NW6       30.26F WCI  29
$$

NYZ001>004-010>016-019>021-085-041700-
WEST


CITY           SKY/WX    TMP DP  RH WIND       PRES   REMARKS
NIAGARA FALLS  CLOUDY    39  29  67 E5        30.26F
BUFFALO        CLOUDY    37  30  75 NE3       30.26S
DUNKIRK        CLOUDY    37  33  85 CALM      30.25F
JAMESTOWN      CLOUDY    34  30  86 S3        30.20F
WELLSVILLE     CLOUDY    35  24  64 NW9       30.22R WCI  28
ROCHESTER      MOSUNNY   39  28  64 N3        30.27F
PENN YAN       MOSUNNY   37  25  61 NW8       30.25F WCI  31
$$

             KEY
       WCI = WIND CHILL INDEX
       VSB = VISIBILITY
       HX  = HEAT INDEX
$$




USA.gov is the U.S. government's official web portal to all federal, state and local government web resources and services.